Hourly Data Report for December 04, 2020

CARBERRY CS
MANITOBA
Current Station Operator: ECCC - MSC

49°54'20.900" N
99°21'26.800" W
383.50 m
5010547
71170
WZE

Download Data

Hourly Data (December 2020)
Hourly Data Report for December 4, 2020
TIME
LST
Temp Definition
°C
Dew Point Definition
°C
Rel Hum Definition
%
Precip. Amount Definition
mm

Wind Dir Definition
10's deg

Wind Spd Definition
km/h
Visibility Definition
km
Stn Press Definition
kPa
Hmdx Definition


Wind Chill Definition


Weather Definition


00:00 -4.1 -5.5 90 0.0 25 9   96.69   -8 LegendNANA
01:00 -5.6 -6.4 94 0.0 27 8   96.70   -9 LegendNANA
02:00 -7.7 -8.8 92 0.0 26 7   96.72   -11 LegendNANA
03:00 -7.8 -7.8 100 0.0 30 5   96.70   -10 LegendNANA
04:00 -9.2 -9.8 95 0.0 19 6   96.65   -13 LegendNANA
05:00 -9.2 -9.9 95 0.0 21 7   96.65   -13 LegendNANA
06:00 -10.3 -11.5 91 0.0   0   96.67     LegendNANA
07:00 -10.9 -11.8 93 0.0   0   96.76     LegendNANA
08:00 -10.7 -11.5 94 0.0 11 8   96.76   -15 LegendNANA
09:00 -8.5 -8.9 97 0.0 19 4   96.80   -11 LegendNANA
10:00 -6.2 -7.9 88 0.0 5 3   96.85   -8 LegendNANA
11:00 -3.9 -7.0 79 0.0 8 3   96.93   -5 LegendNANA
12:00 -2.1 -5.0 81 0.0   0   96.98     LegendNANA
13:00 -0.3 -4.8 72 0.0 3 6   96.98   -2 LegendNANA
14:00 1.2 -4.9 64 0.0 27 3   97.01     LegendNANA
15:00 1.2 -4.1 68 0.0 11 4   97.02     LegendNANA
16:00 0.6 -4.3 70 0.0 16 8   97.05     LegendNANA
17:00 -0.2 -4.7 72 0.0 20 4   97.16   -1 LegendNANA
18:00 -1.2 -5.1 75 0.0 23 9   97.20   -4 LegendNANA
19:00 -3.8 -7.1 78 0.0 25 9   97.23   -8 LegendNANA
20:00 -2.9 -5.5 83 0.0 25 13   97.16   -8 LegendNANA
21:00 -2.3 -5.0 81 0.0 28 22   97.20   -8 LegendNANA
22:00 -3.8 -6.1 84 0.0 24 11   97.19   -8 LegendNANA
23:00 -3.5 -5.2 88 0.0 27 33   97.15   -11 LegendNANA

Notes on Data Quality.

Legend

  • E = Estimated
  • M = Missing
  • NA = Not Available*
  • [empty] = Indicates an unobserved value
Date modified: